Location: Unspecified
(0.0000°N, 0.0000°E)
Time: 11:14:45
(UTC+00:00)

N. Korean satellite - Pass Details

Date: 23 May 2020
Orbit: 455 x 505 km, 97.2° (Epoch: 30 May)

Event Time Altitude Azimuth Distance (km) Brightness Sun altitude
Rises 04:55:52 0° 23° (NNE) 2,588 11.0 -14.2°
Reaches altitude 10° 04:58:03 10° 32° (NNE) 1,706 10.1 -13.7°
Maximum altitude 05:01:29 38° 101° (E) 775 8.1 -12.9°
Drops below altitude 10° 05:04:55 10° 170° (S) 1,702 9.2 -12.1°
Sets 05:07:05 0° 178° (S) 2,582 10.1 -11.6°
